www.pogodaiklimat.ru

Погода и климат >> Архив погоды >> Канада >> Eureka Climate


ПОГОДА в Eureka Climate

  • Прогноз погоды в Eureka Climate
  • Монитор погоды в Eureka Climate
  • Климат города

АРХИВ ПОГОДЫ в Eureka Climate

Время (UTC), дата Ветер
(напр.,м/с)
 
Видим.   Явления Облачность Т
(С)
Тd
(С)
f
(%)
Тe
(С)
Тes
(С)
Комфортность P
(гПа)
Po
(гПа)
Тmin
(С)
Tmax
(С)
R
(мм)
R24
(мм)
S
(см)
18 20.06 СЗ 4 н/о н/о +2.6 +0.6 87 -2 -2 1013.8 1012.5 +1.2 +2.8
21 20.06 З 4 н/о н/о +3.1 +0.8 85 -1 -1 1014.1 1012.8
00 21.06 СЗ 4 н/о н/о +4.3 +0.2 75 0 0 1014.1 1012.8 +1.2 +5.3
03 21.06 СЗ 4 н/о н/о +3.7 +0.1 77 -1 -1 1014.2 1012.9
06 21.06 СЗ 4 н/о н/о +4.5 -1.2 66 +1 +1 1014.2 1012.9 +1.2 +6.0
09 21.06 СЗ 4 н/о н/о +4.2 -0.7 70 0 0 1014.0 1012.7
12 21.06 З 4 н/о н/о +4.8 -1.2 65 +1 +1 1014.0 1012.7 +3.1 +6.0 <0.5
15 21.06 З 5 н/о н/о +4.4 0.0 73 -0 -0 1013.9 1012.6
18 21.06 З 7 н/о н/о +3.1 +0.2 81 -3 -3 1013.7 1012.4 +2.6 +6.0
21 21.06 З 8 н/о н/о +3.4 0.0 78 -3 -3 1013.3 1012.0
00 22.06 З 10 н/о н/о +4.1 +0.3 76 -2 -2 1013.4 1012.1 +3.0 +5.3
03 22.06 З 8 н/о н/о +3.4 +0.3 80 -3 -3 1013.1 1011.8
09 22.06 СЗ 5 н/о н/о +2.9 +0.1 82 -2 -2 1013.1 1011.8
12 22.06 З 5 н/о н/о +4.2 +0.1 75 -1 -1 1013.2 1011.9 +1.7 +6.0 <0.5
15 22.06 З 5 н/о н/о +4.8 +0.4 73 +1 +1 1012.8 1011.5
18 22.06 З 5 н/о н/о +5.8 +0.6 69 +2 +2 1012.5 1011.2 +1.7 +6.2
21 22.06 З 5 н/о н/о +6.8 +0.8 66 +3 +3 1011.9 1010.6
00 23.06 З 5 н/о н/о +5.3 +0.5 71 +1 +1 1011.3 1010.0 +1.7 +6.9
03 23.06 СЗ 5 н/о н/о +5.3 +1.2 75 +1 +1 1010.3 1009.0
06 23.06 ЮВ 1 н/о н/о +2.1 +0.5 89 0 0 1009.4 1008.1 +1.6 +6.9
09 23.06 ЮВ 3 н/о н/о +6.9 +3.0 76 +4 +4 1008.4 1007.1
12 23.06 ЮВ 3 н/о н/о +6.1 +2.3 77 +3 +3 1008.1 1006.8 +1.6 +6.9 <0.5
15 23.06 Ю 6 н/о н/о +6.0 +2.4 78 +1 +1 1007.0 1005.7
18 23.06 ЮВ 5 н/о н/о +8.6 +2.5 65 +5 +5 1006.6 1005.3 +1.6 +8.7
21 23.06 Ю 9 н/о н/о +6.1 +1.6 73 +1 +1 1005.7 1004.4
00 24.06 Ю 9 н/о н/о +5.9 +1.8 75 0 0 1005.7 1004.4 +1.9 +8.8
03 24.06 Ю 8 н/о н/о +4.9 +1.4 78 -1 -1 1005.5 1004.2
06 24.06 Ю 9 н/о н/о +4.0 +1.2 82 -3 -3 1005.6 1004.3 +1.9 +8.8
09 24.06 СВ 2 н/о н/о +4.3 +0.2 75 +2 +2 1006.7 1005.4
12 24.06 ЮВ 6 н/о н/о +3.3 +0.2 80 -2 -2 1007.3 1006.0 +3.3 +8.8 <0.5
15 24.06 Ю 7 н/о н/о +3.3 +0.6 82 -3 -3 1007.6 1006.3
18 24.06 Ю 10 н/о н/о +4.1 +0.8 79 -3 -3 1007.3 1006.0 +2.8 +5.1
21 24.06 ЮВ 7 н/о н/о +4.6 +0.9 77 -1 -1 1007.5 1006.2
00 25.06 ЮВ 6 н/о н/о +3.9 +0.6 79 -1 -1 1007.1 1005.8 +2.8 +5.4
03 25.06 ЮВ 7 н/о н/о +3.6 +0.1 78 -2 -2 1006.8 1005.5
06 25.06 Ю 9 н/о н/о +2.3 -0.3 83 -5 -5 1005.1 1003.8 +2.1 +5.4
09 25.06 ЮВ 7 н/о н/о +2.2 +0.1 86 -4 -4 1004.8 1003.5
12 25.06 ЮВ 9 н/о н/о +1.7 +0.3 90 -6 -6 1004.6 1003.3 +1.6 +5.4 <0.5
15 25.06 ЮВ 8 н/о н/о +2.8 +0.8 87 -4 -4 1004.2 1002.9
18 25.06 Ю 13 н/о н/о +3.0 +1.3 89 -5 -5 1002.8 1001.5 +1.6 +3.7
21 25.06 Ю 15 н/о н/о +3.3 +1.6 89 -5 -5 1001.6 1000.3
00 26.06 Ю 12 н/о {осадки} н/о +3.6 +1.7 87 -4 -4 1000.4 999.1 +1.6 +4.5 0.2
03 26.06 Ю 12 н/о н/о +2.6 +1.4 92 -5 -5 999.8 998.5 0.2
06 26.06 ЮВ 8 н/о {осадки} н/о +2.6 +1.2 90 -4 -4 1001.2 999.9 +1.6 +4.5 0.7
09 26.06 ЮВ 4 н/о н/о +2.4 +1.2 92 -2 -2 1004.4 1003.1
12 26.06 В 3 н/о н/о +3.0 +1.1 87 -1 -1 1005.8 1004.5 +2.0 +4.5 <0.5
15 26.06 Ю 8 н/о н/о +3.3 +1.5 88 -3 -3 1005.9 1004.6
18 26.06 Ю 8 н/о н/о +3.9 +1.9 87 -2 -2 1006.0 1004.7 +2.0 +4.1
21 26.06 Ю 2 н/о н/о +4.6 +0.4 74 +2 +2 1006.5 1005.2
00 27.06 ЮВ 1 н/о н/о +5.3 0.0 69 +4 +4 1006.7 1005.4 +2.2 +5.3
06 27.06 З 2 н/о н/о +1.6 -1.7 79 -1 -1 1006.8 1005.5 +1.3 +6.6
09 27.06 З 3 н/о н/о +1.1 -1.1 85 -3 -3 1007.0 1005.7
12 27.06 ЮВ 3 н/о н/о +3.2 -1.3 72 -0 -0 1006.5 1005.2 +0.5 +6.6 <0.5
15 27.06 З 3 н/о н/о +4.9 -2.9 57 +2 +2 1005.8 1004.5

 

Местоположение метеостанции Eureka Climate (Канада): широта 79.99 долгота -85.93 высота над уровнем моря 10 м.

В архиве по умолчанию представлена погода в Eureka Climate за последнюю неделю. Архивные данные за месяц целиком и за предыдущие месяцы, начиная с января 2011 года, Вы можете получить, выбрав интересующий диапазон дат из раскрывающегося списка и нажав кнопку "Ввод!".

Внимание! Время в таблицах - всемирное. Для получения местного времени необходимо прибавить поправку, которая в Eureka Climate равна -6 ч.

Смотрите также архив погоды в соседних городах и на ближайших метеорологических станциях:

Погода в Eureka (Канада) (1 км)
Погода в Chris Hadfield (Канада) (343 км)
Погода в Isachsen (aut) (Канада) (383 км)
Погода в Mittarfik Qaanaaq (Гренландия) (453 км)
Погода в Kitsissut (Гренландия) (472 км)
Погода в Alert Climate (Канада) (482 км)
Погода в Resolute Cs (Канада) (624 км)
Погода в Resolute Airport (Канада) (624 км)
Погода в Arctic Bay (Канада) (778 км)
Погода в Pond Inlet Airport (Канада) (836 км)

Пояснения к столбцам:

Ветер - указаны скорость ветра в м/с - средняя за 10 мин, порывы в срок и между сроками (в фигурных скобках) и направление, откуда дует ветер: С - северный, СВ - северо-восточный, В - восточный, ЮВ - юго-восточный, Ю - южный, ЮЗ - юго-западный, З - западный, СЗ - северо-западный.
Видимость - горизонтальная дальность видимости в метрах или километрах. При видимости от 1 до 10 км при отсутствии осадков обычно наблюдается дымка, при ухудшении видимости до 1 км и менее - туман. В сухую погоду видимость может ухудшаться дымом, пылью или мглою.
Явления - указаны атмосферные явления, наблюдавшиеся в срок или в последний час перед сроком; фигурными скобками обозначены явления, наблюдавшиеся между сроками (за 1-3 часа до срока); квадратными скобками обозначены град или гололедные отложения с указанием их диаметра в мм.
Облачность - указаны через наклонную черту общая и нижняя облачность в баллах и высота нижней границы облаков в метрах; квадратными скобками обозначены формы облаков: Ci - перистые, Cs - перисто-слоистые, Cc - перисто-кучевые, Ac - высококучевые, As - высокослоистые, Sc - слоисто-кучевые, Ns - слоисто-дождевые, Cu - кучевые, Cb - кучево-дождевые. Подробнее классификацию облаков см. в Атласе облаков (PDF).
T - Температура воздуха - температура, измеренная на высоте 2 м над землей.
Td - Температура точки росы - температура, при понижении до которой содержащийся в воздухе водяной пар достигнет насыщения.
f - Относительная влажность воздуха - влажноcть воздуха, измеренная на высоте 2 м над землей.
Te - Эффективная температура - температура, которую ощущает одетый по сезону человек в тени. Характеристика душности погоды. При расчете учитывается влияние влажности воздуха и скорости ветра на теплоощущения человека.
Tes - Эффективная температура на солнце - температура, которую ощущает человек, с поправкой на солнечный нагрев. Характеристика знойности погоды. Зависит от высоты солнца над горизонтом, облачности и скорости ветра. Ночью, в пасмурную погоду, а также при ветре 12 м/с и более поправка равна нулю.
P - Атмосферное давление - приведенное к уровню моря атмосферное давление.
Po - Атмосферное давление - измеренное на уровне метеостанции атмосферное давление.
Tmin - Минимальная температура - минимум температуры воздуха на высоте 2 м над землей.
Tmax - Максимальная температура - максимум температуры воздуха на высоте 2 м над землей.
R - Количество осадков - Количество выпавших осадков за период времени, мм. При наведении курсора мыши на число - период времени, за который выпало указанное количество осадков.
R24 - Количество осадков - Количество выпавших осадков за 24 часа, мм.
S - Снежный покров - Высота снежного покрова, см. При наведении курсора мыши на число - состояние снежного покрова и степень покрытия местности в баллах.